TimeCDT,TemperatureF,Dew PointF,Humidity,Sea Level PressureIn,VisibilityMPH,Wind Direction,Wind SpeedMPH,Gust SpeedMPH,PrecipitationIn,Events,Conditions,WindDirDegrees,DateUTC
12:53 AM,64.0,54.0,70,29.89,10.0,WNW,4.6,-,N/A,,Overcast,300,2013-06-17 05:53:00
1:53 AM,61.0,53.1,75,29.89,10.0,NW,4.6,-,N/A,,Clear,310,2013-06-17 06:53:00
2:53 AM,60.1,53.1,78,29.89,10.0,Calm,Calm,-,N/A,,Clear,0,2013-06-17 07:53:00
3:53 AM,59.0,52.0,78,29.90,10.0,Calm,Calm,-,N/A,,Clear,0,2013-06-17 08:53:00
4:53 AM,55.9,52.0,87,29.91,10.0,Calm,Calm,-,N/A,,Partly Cloudy,0,2013-06-17 09:53:00
5:53 AM,55.9,52.0,87,29.92,10.0,Calm,Calm,-,N/A,,Clear,0,2013-06-17 10:53:00
6:53 AM,62.1,53.1,72,29.92,10.0,NW,6.9,-,N/A,,Clear,320,2013-06-17 11:53:00
7:53 AM,66.9,54.0,63,29.93,10.0,NW,10.4,-,N/A,,Clear,320,2013-06-17 12:53:00
8:53 AM,71.1,54.0,55,29.94,10.0,WNW,11.5,-,N/A,,Clear,300,2013-06-17 13:53:00
9:53 AM,73.9,53.1,48,29.94,10.0,WNW,13.8,-,N/A,,Clear,300,2013-06-17 14:53:00
10:53 AM,75.0,52.0,44,29.95,10.0,NW,11.5,19.6,N/A,,Scattered Clouds,310,2013-06-17 15:53:00
11:53 AM,77.0,51.1,40,29.95,10.0,NW,11.5,-,N/A,,Mostly Cloudy,320,2013-06-17 16:53:00
12:53 PM,78.1,51.1,39,29.96,10.0,West,8.1,18.4,N/A,,Partly Cloudy,270,2013-06-17 17:53:00
1:53 PM,77.0,48.9,37,29.95,10.0,WNW,10.4,-,N/A,,Scattered Clouds,290,2013-06-17 18:53:00
2:53 PM,78.1,51.1,39,29.95,10.0,NW,11.5,-,N/A,,Partly Cloudy,320,2013-06-17 19:53:00
3:53 PM,75.0,57.0,53,29.96,10.0,NE,9.2,-,N/A,,Mostly Cloudy,40,2013-06-17 20:53:00
4:53 PM,75.0,55.0,50,29.97,10.0,NNE,5.8,-,N/A,,Scattered Clouds,30,2013-06-17 21:53:00
5:53 PM,78.1,54.0,43,29.96,10.0,NE,8.1,-,N/A,,Scattered Clouds,50,2013-06-17 22:53:00
6:53 PM,75.0,55.0,50,29.96,10.0,NNE,10.4,17.3,N/A,,Clear,30,2013-06-17 23:53:00
7:53 PM,71.1,57.0,61,29.97,10.0,NE,8.1,-,N/A,,Scattered Clouds,40,2013-06-18 00:53:00
8:53 PM,66.9,54.0,63,29.99,10.0,ENE,9.2,-,N/A,,Mostly Cloudy,70,2013-06-18 01:53:00
9:53 PM,61.0,51.1,70,30.03,10.0,ENE,8.1,-,N/A,,Scattered Clouds,60,2013-06-18 02:53:00
10:53 PM,59.0,48.9,69,30.05,10.0,NE,8.1,-,N/A,,Overcast,50,2013-06-18 03:53:00
11:53 PM,57.0,46.0,67,30.07,10.0,East,9.2,-,N/A,,Overcast,80,2013-06-18 04:53:00